map of YWH home
YWH - Seaplane Base
Location
City:  Victoria, British Columbia, Canada
Name:Victoria Inner Harbour Airport
Old (Alt.):Victoria Harbour Water Airport
ICAO:CYWH
IATA:YWH

Details
Type:Seaplane Base
Use:Private
Latitude:4825'22"N (48.422778)
Longitude:12323'15"W (-123.387499)
Elevation:0 ft (0 m)
Variation:16.06E (WMM2015 magnetic declination)
-0.15 annual change

Time
Time Zone:UTC-8 (DST-7)
Local Time:

Weather
METAR:CYWH 191300Z 33003KT 310V030 15SM FEW250 03/02 A3023 RMK CI1 SLP237
TAF:CYWH 182338Z 1900/1904 05006KT P6SM FEW030 SCT140 BKN220
RMK NXT FCST WILL BE ISSUED AT 191415Z

Related Locations
Nearby:
Farthest:FTU: 10735 mi / 17276 km
Tolagnaro [Maurillac Airport (Fort Dauphin Airport)], MG

Find:

   beyond  
but within

Other Information
Maps:
NOTAMs:
Links:
Sources:

  
flag of Canada
flag of British Columbia
  

Sectional Chart

Flight Planning
at skyvector.com

Satellite Image

Google Maps Satellite view

 

Copyright © 2004-2018 Karl L. Swartz. All rights reserved.
The Great Circle Mapper name and logo are trademarks of the Great Circle Mapper.
All other trademarks mentioned herein belong to their respective owners.
Please see credits for attibutions and further copyright information.

  Follow gcmap on Facebook Follow gcmap on Twitter Follow gcmap on Google+ GCmap on LinkedIn

hCard Microformat

Geo Microformat